Everett, WA
on Friday, December 28, 2012

Friday
Previous Day Next Day
Daily Summary
 ActualAverageRecord
Temperature
Mean Temperature °F °F  
Max Temperature 46°F 43°F 58°F (1980)
Min Temperature 37°F 29°F 13°F (1968)
Degree Days
Heating Degree Days 24    
Moisture
Dew Point 35°F   
Average Humidity 79    
Maximum Humidity 87    
Minimum Humidity 66    
Precipitation
Precipitation 0.00 in in in ()
Wind
Wind Speed 3 mph   
Max Wind Speed 8 mph   
Max Gust Speed mph   
Visibility 10 miles   
Events Rain   
Averages and records for this station are not official NWS values.
Key: T is trace of precipitation, MM is missing value
Source: NWS Daily Summary
Seasonal Weather Averages
Time(PST)TemperatureDew PointHumidity Pressure Visibility Wind DirectionWind SpeedGust SpeedPrecipitationEvents Conditions
12:53 AM 39.9°F 36.0°F 86% 30.17 in 10.0 miles Calm Calm - N/A   Overcast
1:53 AM 39.9°F 36.0°F 86% 30.17 in 10.0 miles ESE 6.9 mph - N/A   Overcast
2:22 AM 39.2°F 35.6°F 87% 30.15 in 10.0 miles ESE 5.8 mph - N/A   Overcast
2:53 AM 39.2°F 35.6°F 87% 30.15 in 10.0 miles ESE 5.8 mph - N/A   Overcast
3:04 AM 39.2°F 35.6°F 87% 30.15 in 10.0 miles Variable 5.8 mph - N/A   Overcast
3:43 AM 39.2°F 35.6°F 87% 30.14 in 10.0 miles Calm Calm - N/A   Overcast
3:53 AM 39.9°F 36.0°F 86% 30.15 in 10.0 miles Calm Calm - N/A   Overcast
4:53 AM 39.9°F 36.0°F 86% 30.15 in 10.0 miles Calm Calm - N/A   Overcast
5:49 AM 39.2°F 35.6°F 87% 30.12 in 10.0 miles SE 4.6 mph - N/A   Scattered Clouds
5:53 AM 39.9°F 35.1°F 83% 30.14 in 10.0 miles ESE 5.8 mph - N/A   Partly Cloudy
6:53 AM 39.0°F 35.1°F 86% 30.13 in 10.0 miles ESE 3.5 mph - N/A   Partly Cloudy
7:53 AM 37.9°F 34.0°F 86% 30.12 in 10.0 miles ESE 5.8 mph - N/A   Mostly Cloudy
8:53 AM 37.9°F 34.0°F 86% 30.13 in 10.0 miles ESE 6.9 mph - N/A   Mostly Cloudy
9:53 AM 39.0°F 33.1°F 79% 30.14 in 10.0 miles ESE 8.1 mph - N/A   Clear
10:53 AM 42.1°F 34.0°F 73% 30.14 in 10.0 miles Calm Calm - N/A   Clear
11:53 AM 44.1°F 35.1°F 71% 30.13 in 10.0 miles SSE 4.6 mph - N/A   Clear
12:53 PM 44.1°F 34.0°F 68% 30.12 in 10.0 miles SSE 8.1 mph - N/A   Overcast
1:53 PM 45.0°F 35.1°F 68% 30.12 in 10.0 miles SSE 5.8 mph - N/A   Scattered Clouds
2:53 PM 46.0°F 35.1°F 66% 30.12 in 10.0 miles Variable 4.6 mph - N/A   Partly Cloudy
3:53 PM 45.0°F 36.0°F 71% 30.12 in 10.0 miles Calm Calm - N/A   Overcast
4:53 PM 42.8°F 35.6°F 76% 30.11 in 10.0 miles Calm Calm - N/A   Overcast
5:53 PM 44.1°F 35.1°F 71% 30.13 in 10.0 miles East 4.6 mph - 0.00 in Rain Light Rain
6:53 PM 44.1°F 35.1°F 71% 30.14 in 10.0 miles Calm Calm - 0.00 in   Overcast
7:53 PM 42.1°F 34.0°F 73% 30.14 in 10.0 miles ESE 5.8 mph - 0.00 in Rain Light Rain
8:53 PM 41.0°F 34.0°F 76% 30.14 in 10.0 miles Variable 3.5 mph - 0.00 in   Overcast
9:53 PM 41.0°F 34.0°F 76% 30.15 in 10.0 miles ESE 4.6 mph - N/A   Overcast
10:53 PM 39.9°F 34.0°F 79% 30.16 in 10.0 miles Calm Calm - N/A   Overcast
11:53 PM 39.9°F 33.1°F 77% 30.16 in 10.0 miles Calm Calm - N/A   Overcast
Moon Phase
Dec. 28 Jan. 04 Jan. 11 Jan. 18 Jan. 26
Sunrise:07:58 AM (PST) Moon Rise:05:10 PM (PST)
Sunset:04:23 PM (PST) Moon Set:07:52 AM (PST)

Copyright © 2014 The Weather Underground, Inc.